Elko, NV

2:22 PM PST on February 23, 2017 (GMT -0800)
Elko Regional

Weather History for KEKO - December, 2013

Change the Weather History Date:

Wednesday, December 4, 2013

  Actual Average Record
Temperature  
Mean Temperature 10 °F 28 °F  
Max Temperature 18 °F 39 °F 64 °F (1940)
Min Temperature 1 °F 17 °F -9 °F (1897)
Degree Days  
Heating Degree Days 55 37  
Month to date heating degree days 148 147  
Since 1 July heating degree days 1708 1885  
Cooling Degree Days 0 0  
Month to date cooling degree days 0 0  
Year to date cooling degree days 776 383  
Moisture  
Dew Point 2 °F    
Average Humidity 71    
Maximum Humidity 87    
Minimum Humidity 54    
Precipitation  
Precipitation T in 0.04 in 0.25 in (1953)
Month to date precipitation 0.24 0.15  
Year to date precipitation 6.05 8.86  
Snow  
Snow T in 0.30 in 3.00 in (1919)
Month to date snowfall 1.7 1.1  
Since 1 July snowfall 7.4 6.8  
Snow Depth 1.00 in    
Sea Level Pressure  
Sea Level Pressure 30.12 in    
Wind  
Wind Speed 4 mph (WSW)    
Max Wind Speed 12 mph    
Max Gust Speed 14 mph    
Visibility 10 miles    
Events      
T = Trace of Precipitation, MM = Missing Value Source: NWS Daily Summary

Daily Weather History Graph

Daily Weather History Graph

Search for Another Location

Airport or City:

Trip Planner

Search our weather history database for the weather conditions in past years. The results will help you decide how hot, cold, wet, or windy it might be!

Date:

Astronomy

Dec. 04, 2013 Rise Set
Actual Time 6:51 AM PST 4:15 PM PST
Civil Twilight 6:20 AM PST 4:46 PM PST
Nautical Twilight 5:46 AM PST 5:20 PM PST
Astronomical Twilight 5:13 AM PST 5:53 PM PST
Moon 8:23 AM PST (12/4) 6:31 PM PST (12/4)
Length of Visible Light 10h 25m
Length of Day
9h 24m
Waxing Crescent, 5% of the Moon is Illuminated
Dec 4
Waxing Crescent
Dec 9
First Quarter
Dec 17
Full
Dec 25
Last Quarter
Jan 1
New

Hourly Weather History & Observations

Time (PST) Temp. Windchill Dew Point Humidity Pressure Visibility Wind Dir Wind Speed Gust Speed Precip Events Conditions
12:56 AM 6.1 °F -2.8 °F 1.0 °F 80% 29.94 in 10.0 mi West 4.6 mph - N/A   Partly Cloudy
1:56 AM 3.0 °F -6.4 °F -0.9 °F 84% 29.96 in 10.0 mi WSW 4.6 mph - N/A   Clear
2:56 AM 3.0 °F - -0.9 °F 84% 29.97 in 10.0 mi Calm Calm - N/A   Clear
3:56 AM 3.0 °F -8.0 °F -2.0 °F 80% 29.99 in 10.0 mi West 5.8 mph - N/A   Clear
4:56 AM 3.0 °F - -2.0 °F 80% 30.01 in 10.0 mi Calm Calm - N/A   Clear
5:56 AM 1.0 °F -8.7 °F -2.9 °F 83% 30.10 in 10.0 mi West 4.6 mph - N/A   Partly Cloudy
6:56 AM 1.0 °F - -2.9 °F 83% 30.13 in 10.0 mi Calm Calm - N/A   Clear
7:56 AM 3.9 °F - -0.9 °F 80% 30.14 in 10.0 mi Calm Calm - N/A   Mostly Cloudy
8:56 AM 10.0 °F 1.8 °F 5.0 °F 80% 30.13 in 10.0 mi WSW 4.6 mph - N/A   Overcast
9:56 AM 12.9 °F 5.2 °F 7.0 °F 77% 30.14 in 10.0 mi SW 4.6 mph - N/A   Overcast
10:56 AM 16.0 °F 6.3 °F 7.0 °F 68% 30.13 in 10.0 mi South 6.9 mph - N/A   Overcast
11:56 AM 17.1 °F 8.7 °F 6.1 °F 62% 30.12 in 10.0 mi Variable 5.8 mph - N/A   Overcast
12:56 PM 17.1 °F 5.8 °F 5.0 °F 59% 30.13 in 10.0 mi SW 9.2 mph - N/A   Overcast
1:56 PM 18.0 °F 9.8 °F 3.0 °F 52% 30.13 in 10.0 mi SSW 5.8 mph - N/A   Overcast
2:56 PM 17.1 °F 5.0 °F 3.9 °F 56% 30.15 in 10.0 mi WSW 10.4 mph - N/A   Overcast
3:56 PM 16.0 °F 7.4 °F 6.1 °F 65% 30.15 in 10.0 mi SSW 5.8 mph - N/A   Overcast
4:56 PM 14.0 °F 6.5 °F 5.0 °F 67% 30.17 in 10.0 mi WSW 4.6 mph - N/A   Overcast
5:56 PM 15.1 °F 6.4 °F 5.0 °F 64% 30.18 in 10.0 mi WSW 5.8 mph - N/A   Overcast
6:56 PM 12.0 °F 5.9 °F 3.9 °F 70% 30.19 in 10.0 mi WSW 3.5 mph - N/A   Overcast
7:56 PM 6.1 °F - -0.0 °F 76% 30.22 in 10.0 mi Calm Calm - N/A   Mostly Cloudy
8:56 PM 5.0 °F -2.1 °F -0.0 °F 80% 30.22 in 10.0 mi WSW 3.5 mph - N/A   Overcast
9:56 PM 9.0 °F - 1.0 °F 70% 30.19 in 10.0 mi Calm Calm - N/A   Overcast
10:56 PM 9.0 °F - 1.0 °F 70% 30.18 in 10.0 mi Calm Calm - N/A   Overcast
11:56 PM 9.0 °F 0.6 °F 1.0 °F 70% 30.17 in 10.0 mi West 4.6 mph - N/A   Overcast